This demonstration page uses our WeatherBlox Daily Observations layout. Learn more.

Left ArrowRight Arrow

39.51506, -84.39828

Hourly Observations for March 25, 2018

Temp ( °F °C ) Dew Point ( °F °C ) Humidity (%) Winds ( mph kmh ) Pressure ( in mb ) Visibility ( mi km ) Precip ( " mm )
12:15 am 00:15 Clear 35 1.5 19 -7.5 52 52 NE 16 26 30.18 1022 10 16.0934 N/A
12:35 am 00:35 Clear 35 1.5 16 -8.7 47 47 NE 16 26 30.21 1023 10 16.0934 N/A
12:55 am 00:55 Clear 34 1.2 15 -9.4 46 46 NE 13 20 30.21 1023 10 16.0934 N/A
1:15 am 01:15 Clear 34 0.9 15 -9.7 45 45 NE 18 30 30.21 1023 10 16.0934 N/A
1:35 am 01:35 Clear 34 1 14 -10 44 44 NE 14 22 30.21 1023 10 16.0934 N/A
1:55 am 01:55 Clear 33 0.8 14 -10.1 44 44 NE 18 30 30.21 1023 10 16.0934 N/A
2:15 am 02:15 Clear 33 0.7 14 -10.1 45 45 NE 16 26 30.21 1023 10 16.0934 N/A
2:35 am 02:35 Clear 33 0.4 14 -9.8 47 47 NE 15 24 30.21 1023 10 16.0934 N/A
2:55 am 02:55 Clear 32 0.2 15 -9.3 49 49 NE 16 26 30.24 1024 10 16.0934 N/A
3:15 am 03:15 Clear 32 undefined 16 -8.9 52 52 NE 16 26 30.24 1024 10 16.0934 N/A
3:35 am 03:35 Clear 31 -0.3 16 -8.7 54 54 NE 16 26 30.24 1024 10 16.0934 N/A
3:55 am 03:55 Clear 31 -0.6 17 -8.6 55 55 NE 16 26 30.24 1024 10 16.0934 N/A
4:15 am 04:15 Clear 31 -0.8 17 -8.4 57 57 NE 16 26 30.24 1024 10 16.0934 N/A
4:35 am 04:35 Clear 30 -1 18 -8 59 59 NE 17 28 30.24 1024 10 16.0934 N/A
4:55 am 04:55 Clear 30 -1.3 18 -7.6 63 63 NE 18 30 30.24 1024 10 16.0934 N/A
5:15 am 05:15 Clear 29 -1.5 19 -7.5 64 64 NE 15 24 30.24 1024 10 16.0934 N/A
5:35 am 05:35 Clear 29 -1.6 19 -7.5 64 64 NE 16 26 30.24 1024 10 16.0934 N/A
5:55 am 05:55 Clear 29 -1.8 19 -7.5 65 65 NE 15 24 30.24 1024 10 16.0934 N/A
6:15 am 06:15 Clear 29 -1.8 18 -7.8 64 64 NE 14 22 30.27 1025 10 16.0934 N/A
6:35 am 06:35 Clear 28 -2 18 -7.7 65 65 NE 14 22 30.27 1025 10 16.0934 N/A
6:55 am 06:55 Clear 28 -2.2 18 -7.9 65 65 NE 15 24 30.27 1025 10 16.0934 N/A
7:15 am 07:15 Clear 28 -2.3 17 -8.2 64 64 NE 16 26 30.3 1026 10 16.0934 N/A
7:35 am 07:35 Sunny 27 -2.6 17 -8.5 64 64 NE 14 22 30.3 1026 10 16.0934 N/A
7:55 am 07:55 Sunny 27 -2.6 16 -8.7 63 63 NE 15 24 30.3 1026 10 16.0934 N/A
8:15 am 08:15 Sunny 28 -2.3 15 -9.5 58 58 NE 15 24 30.33 1027 10 16.0934 N/A
8:35 am 08:35 Sunny 29 -1.9 14 -9.8 55 55 ENE 12 19 30.33 1027 10 16.0934 N/A
8:55 am 08:55 Sunny 29 -1.4 13 -10.8 49 49 ENE 14 22 30.33 1027 10 16.0934 N/A
9:15 am 09:15 Sunny 30 -0.9 12 -11.2 46 46 ENE 16 26 30.33 1027 10 16.0934 N/A
9:35 am 09:35 Sunny 31 -0.3 12 -11.3 44 44 NE 16 26 30.33 1027 10 16.0934 N/A
9:55 am 09:55 Sunny 33 0.3 11 -11.5 41 41 ENE 17 28 30.33 1027 10 16.0934 N/A
10:15 am 10:15 Sunny 35 1.4 11 -11.4 38 38 ENE 17 28 30.33 1027 10 16.0934 N/A
10:35 am 10:35 Sunny 35 1.7 11 -11.9 36 36 ENE 18 30 30.33 1027 10 16.0934 N/A
10:55 am 10:55 Sunny 37 2.5 13 -10.7 37 37 NE 16 26 30.33 1027 10 16.0934 N/A
11:15 am 11:15 Sunny 38 3.3 11 -11.4 33 33 ENE 21 33 30.33 1027 10 16.0934 N/A
11:35 am 11:35 Sunny 39 4.1 11 -11.7 31 31 ENE 18 30 30.33 1027 10 16.0934 N/A
11:55 am 11:55 Sunny 41 5 10 -12.4 27 27 ENE 17 28 30.33 1027 10 16.0934 N/A
12:15 pm 12:15 Sunny 41 5.2 6 -14.2 23 23 ENE 22 35 30.33 1027 10 16.0934 N/A
12:35 pm 12:35 Sunny 43 5.9 6 -14.2 22 22 ENE 22 35 30.33 1027 10 16.0934 N/A
12:55 pm 12:55 Sunny 43 6.2 7 -14 22 22 E 21 33 30.33 1027 10 16.0934 N/A
1:15 pm 13:15 Sunny 44 6.6 7 -13.9 22 22 ENE 20 31 30.3 1026 10 16.0934 N/A
1:35 pm 13:35 Sunny 44 6.6 8 -13.5 22 22 E 17 28 30.3 1026 10 16.0934 N/A
1:55 pm 13:55 Sunny 46 7.6 10 -12.2 23 23 ENE 15 24 30.27 1025 10 16.0934 N/A
2:15 pm 14:15 Sunny 46 7.5 10 -12.5 23 23 NE 15 24 30.27 1025 10 16.0934 N/A
2:35 pm 14:35 Sunny 46 7.6 10 -12.1 23 23 ENE 14 22 30.27 1025 10 16.0934 N/A
2:55 pm 14:55 Sunny 46 7.6 10 -12.2 23 23 ENE 15 24 30.27 1025 10 16.0934 N/A
3:15 pm 15:15 Sunny 46 7.9 11 -11.5 24 24 NE 14 22 30.27 1025 10 16.0934 N/A
3:35 pm 15:35 Sunny 46 8 11 -11.9 23 23 E 18 30 30.27 1025 10 16.0934 N/A
3:55 pm 15:55 Sunny 46 8 10 -12 23 23 NE 18 30 30.27 1025 10 16.0934 N/A
4:15 pm 16:15 Sunny 47 8.1 10 -12 23 23 E 16 26 30.24 1024 10 16.0934 N/A
4:35 pm 16:35 Sunny 45 7.4 10 -12.2 24 24 ENE 16 26 30.24 1024 10 16.0934 N/A
4:55 pm 16:55 Sunny 47 8.1 10 -12 23 23 E 14 22 30.24 1024 10 16.0934 N/A
5:15 pm 17:15 Sunny 47 8.1 10 -12.2 22 22 E 21 33 30.24 1024 10 16.0934 N/A
5:35 pm 17:35 Sunny 46 8 10 -12.3 22 22 ENE 18 30 30.24 1024 10 16.0934 N/A
5:55 pm 17:55 Sunny 46 7.5 10 -12.5 23 23 E 18 30 30.24 1024 10 16.0934 N/A
6:15 pm 18:15 Sunny 46 8 12 -11.1 25 25 ENE 20 31 30.27 1025 10 16.0934 N/A
6:35 pm 18:35 Sunny 45 7.3 10 -12.2 24 24 E 16 26 30.27 1025 10 16.0934 N/A
6:55 pm 18:55 Sunny 44 6.9 10 -12 25 25 E 17 28 30.27 1025 10 16.0934 N/A
7:15 pm 19:15 Sunny 44 6.5 11 -11.7 26 26 ENE 14 22 30.27 1025 10 16.0934 N/A
7:35 pm 19:35 Sunny 43 6.2 11 -11.8 26 26 ENE 16 26 30.27 1025 10 16.0934 N/A
7:55 pm 19:55 Clear 42 5.6 11 -11.6 28 28 ENE 13 20 30.3 1026 10 16.0934 N/A
8:15 pm 20:15 Clear 41 4.9 12 -11.1 31 31 ENE 14 22 30.3 1026 10 16.0934 N/A
8:35 pm 20:35 Clear 40 4.6 12 -11.2 31 31 ENE 13 20 30.3 1026 10 16.0934 N/A
8:55 pm 20:55 Clear 40 4.3 12 -10.9 32 32 ENE 13 20 30.3 1026 10 16.0934 N/A
9:15 pm 21:15 Clear 39 4 12 -11.3 32 32 ENE 15 24 30.3 1026 10 16.0934 N/A
9:35 pm 21:35 Clear 39 3.8 11 -11.6 32 32 ENE 13 20 30.33 1027 10 16.0934 N/A
9:55 pm 21:55 Clear 38 3.5 11 -11.7 32 32 ENE 13 20 30.33 1027 10 16.0934 N/A
10:15 pm 22:15 Clear 38 3.4 10 -12 32 32 ENE 13 20 30.33 1027 10 16.0934 N/A
10:35 pm 22:35 Clear 38 3.3 10 -12.1 32 32 ENE 12 19 30.33 1027 10 16.0934 N/A
10:55 pm 22:55 Clear 37 2.7 10 -12 33 33 ENE 13 20 30.33 1027 10 16.0934 N/A
11:15 pm 23:15 Clear 37 2.5 11 -11.8 34 34 ENE 12 19 30.33 1027 10 16.0934 N/A
11:35 pm 23:35 Clear 36 2.3 11 -11.9 35 35 ENE 12 19 30.33 1027 10 16.0934 N/A
11:55 pm 23:55 Clear 36 2.3 11 -11.9 35 35 ENE 14 22 30.33 1027 10 16.0934 N/A

Powered by AerisWeather